Regional Weather Roundup
Issued by NWS Newport/Morehead, NC

Current Version | Previous Version | Graphics & Text | Print | Product List | Glossary On
Versions: 1 2 3 4 5 6 7 8 9 10 11 12 13 14 15 16 17 18 19 20 21 22 23 24 25 26 27 28 29 30 31 32 33 34 35 36 37 38 39 40 41 42 43 44 45 46 47 48 49 50
000 ASUS42 KMHX 260014 RWRMHX WEATHER ROUNDUP FOR EASTERN NORTH CAROLINA NATIONAL WEATHER SERVICE NEWPORT/MOREHEAD CITY NC 800 PM EDT TUE JUL 25 2017 NOTE: "FAIR" INDICATES FEW OR NO CLOUDS BELOW 12,000 FEET WITH NO SIGNIFICANT WEATHER AND/OR OBSTRUCTIONS TO VISIBILITY NCZ015>017-031-032-045>047-102-103-260100- NORTH COAST CITY SKY/WX TMP DP RH WIND PRES REMARKS EDENTON MOCLDY 79 69 71 CALM 30.10R ELIZABETH CITY PTCLDY 77 67 71 NE13 30.10R KITTY HAWK MOCLDY 76 64 66 NE5 30.09R MANTEO PTCLDY 76 65 69 E10 30.10R $$ NCZ045>047-081-094-103-104-260100- CENTRAL COAST CITY SKY/WX TMP DP RH WIND PRES REMARKS FRISCO CLOUDY 77 66 68 NE7 30.09R $$ NCZ095-097-098-100-101-260100- SOUTHERN COAST CITY SKY/WX TMP DP RH WIND PRES REMARKS BEAUFORT LGT RAIN 81 78 91 E5 30.07R CEDAR ISLAND NOT AVBL JACKSONVILLE CLOUDY 84 77 79 E3 30.06R THUNDER PINEY ISLAND PTCLDY N/A N/A N/A E10 30.07R WILMINGTON CLOUDY 82 76 81 SW3 30.04R $$ NCZ011>013-027>030-043-044-078>080-089-090>093-098-260100- COASTAL PLAIN CITY SKY/WX TMP DP RH WIND PRES REMARKS AHOSKIE N/A 79 74 83 E3 30.09R CLINTON CLEAR 89 73 59 N5 30.05R ELIZABETHTOWN NOT AVBL GOLDSBORO MOCLDY 86 79 81 E13 30.05R HX 100 GREENVILLE PTCLDY 82 73 74 SE7 30.08S HAVELOCK CLOUDY 80 75 84 E5 30.07R KENANSVILLE PTCLDY 88 73 62 CALM 30.04R KINSTON MOCLDY 81 72 74 E8 30.07R NEW BERN CLOUDY 80 74 81 E10 30.08R RICHLANDS CLOUDY 81 75 82 NE12G22 30.07R THUNDER ROCKY MOUNT PTCLDY 83 75 77 E3 30.07R WASHINGTON PTCLDY 81 72 72 E6 30.07R WHITEVILLE PTCLDY 86 77 76 CALM 30.04R $$ AMZ130-135-150-152-154-156-158-170-250-252-270-ANZ085-086-088-633-658-670-260100- MARINE OBSERVATIONS STATION/POSITION TIME TEMP WIND PRES WAVE SWELL AIR SEA DIR/SP/G HT/PER HT/PER (UTC) (F) (DEG/KT/KT) (MB) (FT/S) (FT/S) CHESAPEAKE LIGHT NOT AVBL 64 E VA BEACH 2350 77 78 10/ 14/ 16 1019.2 3/ 5 2/ 7 DUCK 2348 76 76 40/ 11/ 12 1018.9 2 E DUCK 0000 75 N/A 3/ 5 OREGON INLET 2348 20/ 9/ 11 1018.9 13E OREGON INLT 2348 75 N/A 3/ 4 3/ 4 HATTERAS CG 2348 78 79 50/ 10/ 16 1018.6 DIAMOND BUOY 2350 80 84 40/ 14/ 17 1018.2 4/ 4 2/10 CAPE LOOKOUT 0000 82 CALM / 2 1017.8 BEAUFORT LAB 2348 82 82 50/ 3/ 3 1017.5 30 SE NEW RVR IN 2308 82 84 230/ 10/ 14 1017.2 30 SE NEW RVR IN 2343 84 N/A 4/ 6 27 SE WRIGHTSVLE 2308 83 83 210/ 12/ 17 1016.9 5 SE WRIGHTSVLE 2308 82 83 210/ 12/ 17 1016.7 225 S CAPE HAT 2350 82 83 200/ 10/ 12 1019.3 4/ 7 3/ 7 41 SE CHARLESTON 0000 82 83 230/ 12/ 14 1017.1 $$

USA.gov is the U.S. government's official web portal to all federal, state and local government web resources and services.